#timestamp,LO_Frequency,Hit,StdDev 
1590350415.0,286047003.7,Y
1590350415.9,286047003.7,P
1590350435.8,286047003.9,N
1590350455.6,286047001.7,N
1590350475.4,286047001.6,N
1590350495.3,286047003.6,N
1590350515.1,286047007.1,Y
1590350535.8,286047003.9,P
1590350555.7,286047006.0,P
1590350575.5,286047001.6,N
1590350595.4,286047002.4,N
1590350615.2,286047001.6,N
1590350635.0,286047001.7,N
1590350635.9,286047001.7,N
1590350655.8,286047002.2,N
1590350675.6,286047000.1,N
1590350695.4,286047002.1,N
1590350715.3,286047000.9,N
1590350735.1,286047000.9,N
1590350755.9,286046998.8,N
1590350775.7,286046999.0,N
1590350795.5,286046998.8,N
1590350815.4,286046996.8,N
1590350835.2,286046997.8,N
1590350855.0,286046996.8,N
1590350855.9,286046996.8,N
1590350875.8,286046999.0,N
1590350895.6,286047000.2,N
1590350915.5,286047001.1,N
1590350935.3,286047002.7,N
1590350955.1,286047000.0,N
1590350975.9,286047002.8,N
1590350995.7,286046999.8,N
1590351015.6,286047000.6,N
1590351035.4,286046999.0,N
1590351055.2,286047000.8,N
1590351075.1,286047002.3,N
1590351076.0,286047002.3,N
1590351095.8,286047002.8,N
1590351115.6,286047002.2,N
1590351135.5,286047001.4,N
1590351155.3,286047001.4,N
1590351175.2,286047003.7,N
1590351195.9,286047001.8,N
1590351215.7,286047003.9,N
1590351235.6,286047001.8,N
1590351255.4,286047001.9,N
1590351275.3,286047001.6,N
1590351295.1,286047000.0,N
1590351296.0,286047000.0,N
1590351315.8,286046999.9,N
1590351335.7,286047002.7,N
1590351355.5,286047001.8,N
1590351375.3,286047003.9,N
1590351395.2,286047003.6,N
1590351415.0,286047003.4,N
1590351446.0,286047002.9,E
1590351455.9,286047004.1,N
1590351475.7,286047001.8,P
1590351495.5,286047004.1,P
1590351515.4,286047001.4,N
1590351535.2,286046999.8,N
1590351555.1,286047000.0,N
1590351556.0,286047000.0,N
1590351575.8,286046998.6,N
1590351595.6,286046998.2,N
1590351615.5,286046998.6,N
1590351635.3,286047000.7,N
1590351655.2,286047000.0,N
1590351675.6,286047001.6,N
1590351695.4,286046999.7,N
1590351715.2,286047001.0,N
1590351735.1,286047001.2,N
1590351736.0,286047001.2,N
1590351755.8,286047001.0,N
1590351775.6,286047000.0,N
1590351795.5,286046999.9,N
1590351815.3,286047001.0,N
1590351835.2,286046999.9,N
1590351855.9,286047002.1,N
1590351875.7,286047001.9,N
1590351895.6,286047002.3,N
1590351915.4,286047003.0,N
1590351935.2,286047003.8,N
1590351955.1,286047002.3,N
1590351956.0,286047002.3,N
1590351975.8,286047001.8,N
1590351995.6,286047001.3,N
1590352015.5,286047003.8,N
1590352035.3,286047005.9,Y
1590352055.2,286047003.6,P
1590352075.9,286047004.1,P
1590352095.7,286047002.9,N
1590352115.6,286047003.9,Y
1590352135.4,286047000.3,P
1590352155.3,286047000.8,N
1590352175.1,286046998.5,N
1590352176.0,286046998.5,N
1590352195.8,286047000.7,N
1590352215.7,286047000.4,N
1590352235.5,286047002.7,N
1590352255.3,286047000.1,N
1590352275.2,286047004.0,N
1590352295.0,286047003.1,N
1590352295.9,286047003.1,N
1590352315.8,286047001.8,N
1590352335.6,286047004.3,N
1590352355.4,286047001.3,N
1590352375.3,286047004.2,N
1590352395.1,286047002.5,N
1590352415.8,286047001.0,N
1590352435.7,286047000.9,N
1590352455.5,286047001.0,N
1590352475.4,286047000.0,N
1590352495.2,286047002.7,N
1590352515.0,286047001.6,N
1590352515.9,286047001.6,N
1590352535.8,286047001.3,N
1590352555.6,286047002.7,N
1590352575.4,286047000.8,N
1590352595.3,286047000.4,N
1590352615.1,286046999.4,N
1590352635.9,286046998.8,N
1590352655.7,286046998.3,N
1590352675.5,286046997.0,N
1590352695.4,286046998.1,N
1590352715.2,286047011.9,Y
1590352735.0,286046998.5,P
1590352735.9,286046998.5,N
1590352755.8,286046998.1,N
1590352775.6,286046999.5,N
1590352795.5,286046996.8,Y
1590352815.3,286046998.5,P
1590352835.1,286046998.2,P
1590352855.9,286046998.3,P
1590352875.7,286046999.2,N
1590352895.5,286046994.9,Y
1590352915.4,286046996.8,P
1590352935.2,286046997.4,N
1590352955.1,286046998.0,N
1590352956.0,286046998.0,N
1590352975.8,286046997.6,Y
1590352995.6,286047000.7,P
1590353015.5,286046998.9,N
1590353035.3,286046996.5,N
1590353055.1,286046996.9,N
1590353075.9,286046999.4,N
1590353095.7,286046998.9,N
1590353115.6,286047000.9,N
1590353135.4,286046998.9,N
1590353155.2,286046998.3,N
1590353175.1,286046998.7,N
1590353176.0,286046998.7,N
1590353195.8,286046999.8,N
1590353215.6,286046999.4,N
1590353235.5,286046998.8,N
1590353255.3,286046998.2,N
1590353275.2,286046998.8,N
1590353295.9,286046999.1,N
1590353315.7,286046999.2,N
1590353335.6,286046998.8,N
1590353355.4,286046999.4,N
1590353375.2,286046997.7,N
1590353395.1,286046996.2,Y
1590353396.0,286046996.2,P
1590353415.8,286046996.8,N
1590353435.7,286046998.2,N
1590353455.5,286046999.6,N
1590353475.3,286046999.6,N
1590353495.2,286046999.6,N
1590353515.0,286046998.8,N
1590353515.9,286046998.8,N
1590353535.7,286046999.1,N
1590353555.6,286047000.5,N
1590353575.4,286047000.2,N
1590353595.3,286047001.9,N
1590353615.1,286047002.3,N
1590353616.0,286047002.3,N
1590353635.8,286047000.9,N
1590353655.7,286046999.0,N
1590353675.5,286046997.7,N
1590353695.3,286046997.1,N
1590353715.2,286046997.6,N
1590353735.0,286046995.4,N
1590353735.9,286046995.4,N
1590353755.8,286046996.7,N
1590353775.6,286046996.9,N
1590353795.4,286047001.2,N
1590353815.3,286046998.1,N
1590353835.1,286046999.9,N
1590353855.8,286047000.5,N
1590353905.7,286047001.2,E
1590353915.6,286047001.0,N
1590353935.5,286046998.8,P
1590353955.3,286046996.7,P
1590353975.1,286046999.4,N
1590353995.9,286047000.6,N
